Location: Arroyo Retuerta
(40.5469°N, 4.3534°W)
Time: 16:28:24
(UTC+00:00)

Envisat - Visible Passes

Search period start: 23 July 2021 00:00
Search period end: 02 August 2021 00:00
Orbit: 764 x 766 km, 98.1° (Epoch: 22 July)

Date Brightness Start Highest point End Pass type
(mag) Time Alt. Az. Time Alt. Az. Time Alt. Az.
25 Jul 6.1 04:10:40 10° ENE 04:12:03 11° E 04:13:26 10° ESE visible
27 Jul 5.6 04:33:58 10° NE 04:37:42 20° E 04:41:24 10° SE visible
30 Jul 5.7 04:23:03 10° NE 04:26:06 16° E 04:29:08 10° SE visible
